Brookings, OR

5:11 AM PDT on September 30, 2016 (GMT -0700)
Brookings State

Weather History for KBOK - August, 2013

Change the Weather History Date:

Friday, August 23, 2013

  Actual Average Record
Temperature  
Mean Temperature 56 °F -  
Max Temperature 61 °F 68 °F 93 °F (2010)
Min Temperature 52 °F 52 °F 45 °F (1951)
Degree Days  
Heating Degree Days 8    
Growing Degree Days 6 (Base 50)    
Moisture  
Dew Point 55 °F    
Average Humidity 96    
Maximum Humidity 100    
Minimum Humidity 81    
Precipitation  
Precipitation 0.00 in - - ()
Sea Level Pressure  
Sea Level Pressure 29.96 in    
Wind  
Wind Speed 2 mph (South)    
Max Wind Speed 8 mph    
Max Gust Speed -    
Visibility 6 miles    
Events Fog    
Averages and records for this station are not official NWS values.
T = Trace of Precipitation, MM = Missing Value Source: NWS Daily Summary

Daily Weather History Graph

Daily Weather History Graph

Search for Another Location

Airport or City:

Trip Planner

Search our weather history database for the weather conditions in past years. The results will help you decide how hot, cold, wet, or windy it might be!

Date:

Astronomy

Aug. 23, 2013 Rise Set
Actual Time 6:33 AM PDT 8:04 PM PDT
Civil Twilight 6:04 AM PDT 8:34 PM PDT
Nautical Twilight 5:28 AM PDT 9:09 PM PDT
Astronomical Twilight 4:50 AM PDT 9:47 PM PDT
Moon 9:22 PM PDT (8/23) 9:39 AM PDT (8/23)
Length of Visible Light 14h 29m
Length of Day
13h 31m
Waning Gibbous, 91% of the Moon is Illuminated
Aug 23
Waning Gibbous
Aug 28
Last Quarter
Sep 5
New
Sep 12
First Quarter
Sep 19
Full

Hourly Weather History & Observations

Time (PDT) Temp. Dew Point Humidity Pressure Visibility Wind Dir Wind Speed Gust Speed Precip Events Conditions
12:15 AM 53.6 °F 53.6 °F 100% 29.99 in 7.0 mi Calm Calm - N/A   Overcast
12:45 AM 53.6 °F 53.6 °F 100% 29.99 in 10.0 mi Calm Calm - N/A   Overcast
12:56 AM 54.9 °F 54.0 °F 97% 29.99 in 10.0 mi SSE 3.5 mph - N/A   Overcast
1:17 AM 53.6 °F 53.6 °F 100% 29.99 in 10.0 mi Calm Calm - N/A   Scattered Clouds
1:56 AM 54.0 °F 52.9 °F 96% 29.98 in 10.0 mi South 5.8 mph - N/A   Partly Cloudy
2:27 AM 53.6 °F 53.6 °F 100% 29.96 in 10.0 mi North 3.5 mph - N/A   Mostly Cloudy
2:56 AM 52.9 °F 52.9 °F 100% 29.98 in 9.0 mi NNW 3.5 mph - N/A   Overcast
3:56 AM 54.0 °F 52.9 °F 96% 29.98 in 10.0 mi Calm Calm - N/A   Overcast
4:05 AM 53.6 °F 53.6 °F 100% 29.97 in 10.0 mi Calm Calm - N/A   Overcast
4:47 AM 55.4 °F 53.6 °F 94% 29.97 in 10.0 mi Calm Calm - N/A   Overcast
4:56 AM 54.9 °F 54.0 °F 97% 29.97 in 10.0 mi Calm Calm - N/A   Overcast
5:56 AM 54.9 °F 54.0 °F 97% 29.97 in 10.0 mi Calm Calm - N/A   Overcast
6:56 AM 54.9 °F 54.0 °F 97% 29.97 in 10.0 mi Calm Calm - N/A   Overcast
7:56 AM 54.9 °F 54.0 °F 97% 29.99 in 9.0 mi Calm Calm - N/A   Overcast
8:56 AM 54.9 °F 52.9 °F 93% 29.99 in 7.0 mi Calm Calm - N/A   Overcast
9:56 AM 54.9 °F 54.0 °F 97% 29.99 in 4.0 mi WNW 5.8 mph - N/A   Overcast
10:30 AM 55.4 °F 53.6 °F 94% 29.99 in 4.0 mi SW 3.5 mph - N/A   Overcast
10:56 AM 56.8 °F 54.9 °F 93% 30.00 in 10.0 mi WNW 3.5 mph - N/A   Overcast
11:56 AM 57.9 °F 54.9 °F 90% 30.00 in 10.0 mi Variable 3.5 mph - N/A   Overcast
12:09 PM 57.2 °F 55.4 °F 94% 29.99 in 10.0 mi Variable 4.6 mph - N/A   Overcast
12:56 PM 57.9 °F 54.9 °F 90% 30.00 in 10.0 mi Variable 4.6 mph - N/A   Overcast
1:56 PM 57.9 °F 54.9 °F 90% 30.00 in 10.0 mi WSW 5.8 mph - N/A   Overcast
2:56 PM 59.0 °F 54.9 °F 86% 29.99 in 9.0 mi SSW 5.8 mph - N/A   Overcast
3:56 PM 61.9 °F 55.9 °F 81% 29.97 in 10.0 mi Variable 5.8 mph - N/A   Mostly Cloudy
4:15 PM 60.8 °F 55.4 °F 82% 29.97 in 10.0 mi WSW 8.1 mph - N/A   Scattered Clouds
4:56 PM 59.0 °F 55.9 °F 90% 29.96 in 6.0 mi SW 5.8 mph - N/A   Mostly Cloudy
5:37 PM 59.0 °F 55.4 °F 88% 29.96 in 1.8 mi Calm Calm - N/A   Mostly Cloudy
5:47 PM 59.0 °F 55.4 °F 88% 29.96 in 3.0 mi Variable 4.6 mph - N/A   Overcast
5:56 PM 57.9 °F 55.9 °F 93% 29.96 in 1.5 mi Variable 3.5 mph - N/A   Overcast
6:01 PM 57.2 °F 55.4 °F 94% 29.95 in 3.0 mi Variable 3.5 mph - N/A   Overcast
6:28 PM 59.0 °F 55.4 °F 88% 29.94 in 10.0 mi West 6.9 mph - N/A   Partly Cloudy
6:56 PM 57.9 °F 55.9 °F 93% 29.94 in 4.0 mi Variable 3.5 mph - N/A   Mostly Cloudy
7:16 PM 57.2 °F 55.4 °F 94% 29.94 in 1.8 mi Variable 3.5 mph - N/A   Overcast
7:19 PM 57.2 °F 55.4 °F 94% 29.94 in 1.0 mi Calm Calm - N/A   Overcast
7:25 PM 55.4 °F 55.4 °F 100% 29.94 in 0.5 mi South 3.5 mph - N/A Fog Fog
7:38 PM 55.4 °F 55.4 °F 100% 29.94 in 0.2 mi South 3.5 mph - N/A Fog Fog
7:45 PM 55.4 °F 55.4 °F 100% 29.94 in 0.2 mi Calm Calm - N/A Fog Fog
7:56 PM 55.9 °F 54.9 °F 96% 29.94 in 0.2 mi ESE 3.5 mph - N/A Fog Fog
8:28 PM 55.4 °F 55.4 °F 100% 29.94 in 0.2 mi Calm Calm - N/A Fog Fog
8:41 PM 55.4 °F 55.4 °F 100% 29.94 in 0.5 mi SE 3.5 mph - N/A Fog Fog
8:56 PM 54.9 °F 54.9 °F 100% 29.95 in 0.2 mi Calm Calm - N/A Fog Fog
9:14 PM 55.4 °F 55.4 °F 100% 29.95 in 0.5 mi Calm Calm - N/A Fog Fog
9:38 PM 55.4 °F 55.4 °F 100% 29.95 in 1.0 mi Calm Calm - N/A   Overcast
9:48 PM 55.4 °F 55.4 °F 100% 29.95 in 0.5 mi SE 3.5 mph - N/A Fog Fog
9:56 PM 54.9 °F 54.9 °F 100% 29.96 in 0.5 mi SE 3.5 mph - N/A Fog Fog
10:03 PM 55.4 °F 55.4 °F 100% 29.95 in 1.0 mi SE 3.5 mph - N/A   Mostly Cloudy
10:06 PM 55.4 °F 55.4 °F 100% 29.95 in 1.5 mi SE 3.5 mph - N/A   Mostly Cloudy
10:09 PM 55.4 °F 55.4 °F 100% 29.95 in 1.0 mi SE 3.5 mph - N/A   Mostly Cloudy
10:17 PM 55.4 °F 55.4 °F 100% 29.95 in 0.5 mi Calm Calm - N/A Fog Fog
10:30 PM 53.6 °F 53.6 °F 100% 29.95 in 1.0 mi Calm Calm - N/A   Mostly Cloudy
10:33 PM 53.6 °F 53.6 °F 100% 29.95 in 1.5 mi Calm Calm - N/A   Mostly Cloudy
10:36 PM 53.6 °F 53.6 °F 100% 29.95 in 3.0 mi ENE 3.5 mph - N/A   Mostly Cloudy
10:44 PM 53.6 °F 53.6 °F 100% 29.95 in 10.0 mi Calm Calm - N/A   Scattered Clouds
10:56 PM 54.9 °F 54.9 °F 100% 29.95 in 10.0 mi Calm Calm - N/A   Clear
11:56 PM 54.0 °F 52.9 °F 96% 29.94 in 10.0 mi ESE 3.5 mph - N/A   Clear